Location: Windsor
(43.2292°N, 89.3015°W)
Time: 09:02:41
(UTC+00:00)

Tiros 1 - Pass Details

Date: 05 June 2022
Orbit: 629 x 663 km, 48.4° (Epoch: 04 July)

Event Time Altitude Azimuth Distance (km) Brightness Sun altitude
Rises 04:49:46 0° 269° (W) 2,911 10.7 -22.5°
Reaches altitude 10° 04:52:09 10° 275° (W) 2,004 9.9 -22.6°
Maximum altitude 04:56:37 48° 350° (N) 829 8.1 -22.8°
Drops below altitude 10° 05:01:06 10° 65° (ENE) 2,013 9.8 -23.0°
Sets 05:03:30 0° 72° (ENE) 2,925 10.6 -23.1°
